Find Starlink 31895

NORAD ID: 59849 Int'l Des: 2024-097 Owner: SPXS Country: US Constellation: starlink operational
LEOCIRCULAR

Live Position

Loading 3D Globe...

About Starlink 31895

Description loading...

Upcoming Passes

Passes for default location (London). Set your location on the main map for personalized predictions.

Altitude History

Loading altitude history...

Two-Line Element Set

1 59849U 24097Q 26125.93850523 .00001480 00000-0 63278-4 0 9991
2 59849 42.9997 310.9323 0000757 288.3447 71.7322 15.27590876110670
Epoch: May 5, 2026 • Age: 17 hours

Current Status

Altitude 491.2 km
Velocity 7.62 km/s
Sub-Earth Point -30.92°S, 74.03°E
Launch Date May 23, 2024
Age 1.9 years
Type internet

Technical Details

Classification Payload
Mass 730.00 kg
Dry Mass 700.00 kg
Total Mass 730.00 kg
Length 0.30 m
Diameter 4.10 m
Span 29.00 m
Shape Box + pan
Manufacturer SPXS
Bus Type Starlink V2M
Phase Status In Orbit
Owner/State SPXS/US

Most Searched